Wind_Speed
17 17 17 16 15 14 15 14 14 14 13 13 12 12 12 11 11 10 10 10 10 10 10 10 10 10 10 10 10 10 10 11 11 11 12 12 12 13 13 13 13 12 12
18 18 18 17 16 16 16 16 15 15 15 14 14 13 13 13 13 12 12 12 12 12 12 12 12 12 12 12 12 12 12 12 12 12 13 13 13 14 14 14 14 13 13
19 19 19 19 18 18 17 17 17 17 16 16 15 14 15 14 14 14 14 14 13 14 14 14 14 14 14 14 14 14 14 13 13 13 14 14 15 15 15 15 15 15 15
21 21 20 20 19 19 18 18 18 18 18 17 16 16 16 16 16 16 16 15 15 15 16 16 16 16 16 15 15 15 15 15 15 15 16 16 16 17 17 17 17 17 17
23 22 22 22 20 20 20 20 20 19 19 18 18 18 17 17 17 18 18 17 17 17 17 17 17 17 17 17 17 17 17 16 16 17 18 18 18 18 19 19 19 19 20
24 24 23 23 23 22 21 21 21 21 21 21 20 20 19 19 19 19 19 19 19 19 19 18 19 19 19 19 19 18 19 19 19 19 19 19 20 20 21 21 21 21 21
26 26 26 25 25 25 24 23 22 23 22 22 22 22 21 21 21 20 20 20 20 20 20 20 20 21 21 21 20 20 20 20 20 21 21 21 21 22 22 23 24 23 23
28 27 27 27 27 27 26 25 25 24 24 23 23 23 23 23 23 22 22 22 22 22 22 22 22 22 22 22 22 22 23 23 23 23 23 23 23 23 23 24 24 24 24
29 29 29 28 28 28 28 28 27 26 26 25 25 25 25 25 25 24 24 24 24 24 24 24 24 24 24 24 25 25 25 25 25 25 25 25 25 25 24 25 25 25 25
30 30 30 30 29 29 29 29 28 28 28 27 27 26 26 26 26 26 26 26 26 26 26 26 26 26 26 26 26 26 26 27 27 28 27 27 27 27 27 27 27 27 27
31 31 31 31 31 31 30 30 30 30 30 30 29 28 28 28 28 28 28 28 28 28 28 28 27 27 27 28 28 28 29 29 29 29 29 29 29 29 29 29 29 29 29
32 32 32 32 32 32 32 32 32 32 32 32 32 31 30 29 29 30 30 30 29 29 29 29 29 29 29 30 30 30 30 30 30 30 30 31 31 31 31 31 31 31 31
32 33 33 33 33 33 33 33 33 33 33 33 33 33 33 32 31 31 32 32 31 31 31 31 31 31 31 31 32 31 31 31 31 31 31 32 32 32 32 32 33 33 33
33 33 33 33 32 33 33 33 33 33 33 34 34 34 34 34 33 32 32 32 33 33 32 32 32 32 32 32 32 32 32 32 32 33 33 33 34 34 34 34 34 34 35
33 33 33 33 33 33 33 33 33 33 34 34 34 34 35 35 34 33 33 33 34 34 33 33 33 33 33 33 33 34 34 34 34 34 35 35 35 36 35 35 36 36 36
34 33 33 34 34 34 33 34 34 34 35 34 34 34 34 34 35 34 34 34 34 34 33 33 33 33 34 34 34 35 35 36 36 37 36 36 37 37 37 37 37 37 37
34 34 33 34 34 34 34 34 35 35 35 35 35 35 34 34 35 35 35 35 34 34 34 34 33 33 33 34 35 36 36 37 37 37 37 37 38 38 38 38 38 38 37
35 34 34 34 35 35 35 35 34 34 34 34 35 35 35 34 34 35 36 36 35 34 35 36 36 35 35 35 35 36 37 37 37 38 38 39 39 39 39 39 39 39 39
34 35 35 35 35 35 35 35 35 35 34 34 34 35 35 35 34 34 35 36 36 36 36 36 37 37 37 37 37 37 37 37 38 38 39 39 39 40 40 40 40 40 40
35 35 35 35 35 36 36 36 36 36 35 35 35 35 35 35 36 35 35 36 36 36 37 37 37 37 38 38 38 39 38 38 38 39 40 40 40 41 41 41 42 41 41
36 36 36 36 36 36 36 37 37 36 36 36 35 35 35 35 35 36 36 36 36 37 37 37 37 37 38 39 39 39 39 39 39 40 41 41 41 41 42 42 43 42 42
36 37 37 37 37 37 37 37 37 37 36 36 36 36 36 36 36 36 37 37 38 39 39 38 38 38 39 39 40 39 39 39 40 41 41 41 41 41 42 42 43 43 43
36 37 37 37 37 37 37 36 36 36 36 37 37 36 36 36 36 37 38 37 38 38 39 39 39 39 39 40 40 40 40 40 40 40 41 41 41 41 41 41 42 43 43
36 37 37 38 39 38 38 38 37 37 37 37 38 37 36 36 35 36 37 37 38 38 38 38 39 39 39 40 40 40 41 41 41 40 41 41 42 42 41 42 42 42 43
35 36 37 37 39 39 39 39 38 38 38 38 37 37 37 37 37 37 36 37 37 38 38 39 39 40 39 40 40 41 41 42 42 41 41 41 42 43 43 43 43 43 44
35 36 36 37 37 38 38 39 39 39 39 39 38 38 38 38 38 38 37 37 37 38 39 40 41 40 40 40 40 41 42 42 42 42 42 41 41 42 42 43 43 44 44
Wind_Direction
250 249 249 250 248 247 246 245 244 242 242 244 244 243 244 247 250 255 257 260 263 264 263 265 268 271 270 269 268 270 272 274 274 274 275 276 278 279 280 282 283 283 283
250 249 250 251 249 247 246 245 244 245 244 245 246 247 248 249 251 255 259 261 262 263 264 265 268 270 272 274 272 271 272 275 276 276 277 277 278 278 278 278 279 282 284
251 251 251 250 249 247 247 245 244 245 245 246 246 247 249 251 253 254 259 262 263 264 265 267 268 268 270 271 273 274 273 274 276 277 278 279 279 278 277 277 278 279 281
251 251 251 250 250 247 247 246 245 246 246 247 247 248 249 251 254 256 258 261 262 264 266 267 269 269 269 269 272 274 274 274 277 278 279 280 280 279 278 278 279 280 281
251 250 251 251 249 247 247 247 246 246 247 247 248 249 250 252 255 257 258 260 261 263 266 268 268 268 269 269 270 273 275 276 277 278 277 278 278 278 277 277 279 279 280
250 250 250 251 250 248 248 248 247 247 249 249 249 250 252 253 255 258 257 258 262 262 264 267 268 269 269 269 270 272 273 275 276 277 278 278 278 278 277 276 277 278 279
252 251 251 251 251 251 249 248 247 247 248 250 250 251 252 254 256 258 259 260 262 263 265 267 268 269 270 270 271 271 272 274 275 276 278 280 279 279 278 277 277 277 278
253 252 251 252 252 251 250 249 247 247 248 249 251 251 252 254 256 258 260 262 264 265 266 268 268 268 269 269 270 271 272 273 275 277 278 279 279 279 279 279 278 278 277
253 252 252 252 252 253 251 250 249 248 248 249 251 252 253 253 255 258 261 262 264 266 266 267 267 267 268 269 270 271 272 273 274 276 277 278 278 279 278 278 278 279 278
254 253 252 252 252 252 251 251 250 249 249 250 252 253 254 254 255 258 260 262 264 266 266 266 266 266 268 269 269 270 271 272 274 275 277 277 277 278 278 278 278 278 278
255 254 252 252 252 252 253 252 251 250 251 251 252 252 255 255 256 258 260 262 264 265 265 266 267 268 269 270 270 271 271 272 273 274 275 276 277 277 278 277 277 277 278
255 254 253 252 253 253 254 253 252 252 252 253 253 253 254 255 257 259 260 261 263 264 265 266 267 268 269 270 271 271 272 272 273 274 275 276 276 277 277 276 276 276 277
255 255 253 253 252 253 254 253 252 252 253 254 254 255 255 256 257 259 259 260 261 264 265 267 267 269 270 270 271 271 271 272 272 274 275 276 276 277 276 276 276 276 276
255 255 254 253 253 254 254 253 253 253 253 253 254 255 257 258 258 259 260 261 262 263 265 267 268 269 269 269 270 271 271 272 272 274 276 276 277 277 277 277 276 276 276
254 254 254 253 253 253 255 255 255 254 254 254 255 257 258 258 259 260 261 261 263 263 266 267 268 269 270 269 269 270 271 272 273 274 275 276 277 276 276 277 277 276 276
253 253 253 252 253 254 256 257 256 256 256 255 255 257 258 259 259 260 261 262 264 264 264 266 268 270 271 270 269 270 270 272 273 274 275 275 276 276 276 276 276 276 275
252 251 251 251 252 254 256 258 257 256 256 256 257 257 258 259 259 260 261 262 263 264 264 266 268 271 271 271 271 272 272 273 274 274 274 275 275 275 276 276 276 276 275
253 252 251 251 252 253 255 257 258 256 256 257 258 258 257 258 260 261 262 262 263 265 266 267 268 270 271 272 272 273 274 275 274 274 274 275 275 275 276 275 275 275 276
252 251 251 251 251 252 254 257 259 258 257 256 257 258 257 258 259 260 262 263 264 265 266 267 268 270 271 272 273 275 276 276 276 276 275 275 275 275 275 275 275 276 276
252 252 251 252 253 253 255 257 259 258 257 257 257 258 258 259 259 260 261 263 264 265 267 268 269 270 271 272 274 275 276 276 276 276 277 277 277 277 275 275 275 276 276
252 252 252 253 254 254 255 257 258 257 256 256 258 259 259 260 261 261 261 263 265 266 268 269 270 271 272 272 273 274 275 276 277 277 278 278 279 278 277 277 276 276 276
252 253 253 253 254 255 257 257 257 256 255 256 258 260 261 261 262 262 262 264 265 267 269 270 271 273 274 274 274 274 274 275 276 277 278 278 279 280 280 278 278 278 277
252 252 252 253 254 255 255 256 256 255 255 256 257 258 260 261 263 264 263 264 266 267 269 270 272 274 275 275 275 274 275 275 276 276 278 278 279 280 280 279 279 278 278
254 253 253 253 254 255 254 255 256 256 256 257 257 258 260 261 262 263 263 264 265 267 269 271 272 275 276 275 274 274 275 276 276 276 277 278 278 279 279 279 279 279 278
254 254 255 254 254 255 255 254 255 255 256 257 258 258 259 260 261 263 263 264 265 266 269 270 271 274 276 276 275 275 275 276 276 276 277 278 278 278 279 279 279 279 279
254 255 255 255 254 255 255 255 254 255 255 256 258 258 258 260 261 263 263 264 265 267 269 270 272 274 276 276 276 276 276 276 275 276 277 277 278 279 279 279 279 279 279
Height
5830 5831 5832 5833 5834 5835 5836 5837 5838 5839 5841 5842 5843 5844 5845 5846 5847 5848 5849 5850 5851 5852 5852 5853 5854 5854 5855 5855 5856 5856 5857 5857 5858 5858 5858 5859 5859 5859 5859 5859 5859 5859 5860
5827 5828 5829 5830 5831 5832 5833 5834 5835 5837 5838 5839 5840 5841 5842 5844 5845 5846 5847 5848 5849 5850 5850 5851 5852 5852 5853 5853 5854 5854 5855 5855 5855 5856 5856 5856 5856 5856 5856 5857 5857 5857 5857
5824 5825 5825 5826 5827 5829 5830 5831 5832 5834 5835 5836 5837 5838 5839 5841 5842 5843 5844 5845 5846 5847 5848 5848 5849 5850 5850 5851 5851 5852 5852 5853 5853 5853 5853 5853 5853 5854 5854 5854 5854 5854 5854
5820 5821 5822 5823 5824 5825 5826 5828 5829 5830 5832 5833 5834 5835 5836 5838 5839 5840 5841 5842 5843 5844 5845 5846 5846 5847 5848 5848 5849 5849 5849 5850 5850 5850 5850 5851 5851 5851 5851 5851 5851 5851 5851
5816 5817 5818 5819 5820 5821 5823 5824 5825 5827 5828 5829 5831 5832 5833 5834 5835 5836 5838 5839 5839 5840 5841 5842 5843 5844 5844 5845 5845 5846 5846 5847 5847 5847 5847 5847 5847 5847 5847 5847 5847 5847 5847
5811 5812 5814 5815 5816 5817 5819 5820 5821 5823 5824 5826 5827 5828 5829 5831 5832 5833 5834 5835 5836 5837 5838 5839 5839 5840 5841 5841 5842 5842 5843 5843 5843 5844 5844 5844 5843 5843 5843 5843 5843 5843 5843
5806 5807 5809 5810 5811 5813 5814 5816 5817 5818 5820 5821 5822 5824 5825 5826 5827 5829 5830 5831 5832 5833 5834 5834 5835 5836 5836 5837 5838 5838 5839 5839 5839 5840 5840 5840 5839 5839 5839 5839 5839 5839 5839
5801 5802 5803 5805 5806 5808 5809 5811 5812 5814 5815 5816 5818 5819 5820 5822 5823 5824 5825 5826 5827 5828 5829 5830 5831 5831 5832 5833 5833 5834 5834 5834 5835 5835 5835 5835 5835 5834 5834 5834 5834 5834 5834
5795 5797 5798 5800 5801 5803 5804 5806 5807 5809 5810 5811 5812 5814 5815 5817 5818 5819 5820 5822 5823 5824 5824 5825 5826 5827 5827 5828 5828 5828 5829 5829 5829 5830 5830 5830 5829 5829 5829 5829 5829 5828 5828
5789 5790 5792 5794 5795 5797 5799 5800 5802 5803 5805 5806 5807 5809 5810 5811 5813 5814 5815 5816 5817 5818 5819 5820 5821 5821 5822 5822 5822 5823 5823 5824 5824 5824 5824 5824 5824 5823 5823 5823 5823 5823 5823
5783 5784 5786 5787 5789 5791 5793 5794 5796 5797 5799 5800 5801 5803 5804 5806 5807 5808 5809 5811 5812 5813 5813 5814 5815 5815 5816 5816 5816 5817 5817 5817 5818 5818 5818 5817 5817 5817 5817 5817 5817 5817 5816
5776 5778 5779 5781 5782 5784 5786 5788 5789 5791 5792 5794 5795 5796 5798 5799 5801 5802 5803 5804 5805 5806 5807 5808 5809 5809 5809 5810 5810 5810 5810 5811 5811 5811 5811 5811 5811 5810 5810 5810 5810 5810 5810
5769 5771 5772 5774 5776 5777 5779 5781 5782 5784 5785 5787 5788 5790 5791 5793 5794 5795 5797 5798 5799 5800 5801 5802 5802 5802 5803 5803 5803 5803 5804 5804 5804 5804 5804 5804 5803 5803 5803 5803 5802 5802 5802
5762 5763 5765 5767 5769 5770 5772 5773 5775 5776 5778 5779 5781 5783 5784 5786 5787 5788 5789 5791 5792 5793 5794 5794 5795 5795 5796 5796 5796 5796 5797 5797 5797 5797 5797 5797 5796 5796 5795 5795 5795 5794 5794
5755 5756 5758 5760 5761 5763 5764 5766 5767 5769 5770 5772 5774 5776 5777 5779 5780 5781 5782 5784 5785 5785 5786 5787 5788 5788 5788 5789 5789 5789 5789 5789 5789 5789 5789 5789 5788 5788 5787 5787 5786 5786 5786
5747 5749 5750 5752 5754 5756 5757 5758 5760 5761 5762 5764 5766 5768 5770 5771 5773 5774 5775 5776 5777 5778 5779 5779 5780 5780 5781 5781 5781 5781 5781 5781 5781 5781 5780 5780 5780 5779 5779 5778 5778 5777 5777
5739 5741 5742 5744 5746 5748 5750 5751 5752 5753 5755 5756 5758 5760 5762 5763 5765 5766 5767 5768 5770 5770 5771 5772 5772 5773 5773 5773 5773 5773 5773 5773 5772 5772 5771 5771 5770 5770 5770 5769 5768 5768 5768
5731 5733 5735 5736 5738 5740 5742 5743 5744 5745 5747 5749 5750 5752 5754 5755 5757 5758 5759 5761 5762 5762 5763 5764 5764 5765 5765 5765 5765 5765 5764 5764 5763 5762 5762 5761 5761 5761 5760 5759 5759 5759 5758
5723 5725 5727 5728 5730 5732 5733 5735 5736 5737 5739 5741 5742 5744 5746 5747 5749 5750 5751 5752 5754 5754 5755 5756 5756 5757 5757 5757 5757 5756 5756 5755 5754 5753 5753 5752 5752 5751 5750 5750 5750 5749 5749
5715 5717 5719 5720 5722 5724 5725 5727 5728 5729 5731 5733 5734 5735 5737 5739 5740 5742 5743 5744 5745 5746 5747 5747 5748 5748 5748 5748 5748 5747 5747 5746 5745 5744 5744 5743 5742 5741 5740 5740 5740 5739 5739
5706 5708 5710 5712 5714 5716 5717 5718 5720 5721 5723 5724 5726 5727 5729 5730 5732 5733 5734 5736 5736 5737 5738 5739 5739 5739 5739 5738 5738 5738 5738 5737 5736 5735 5734 5733 5732 5731 5731 5730 5729 5729 5728
5698 5700 5702 5704 5706 5707 5709 5710 5711 5713 5715 5717 5718 5719 5720 5722 5723 5725 5726 5727 5727 5728 5729 5730 5730 5730 5730 5729 5729 5728 5729 5729 5727 5726 5725 5724 5723 5722 5721 5720 5719 5719 5718
5689 5691 5693 5695 5697 5699 5700 5702 5703 5705 5707 5709 5710 5711 5712 5713 5715 5716 5717 5718 5719 5720 5720 5721 5721 5721 5721 5720 5719 5719 5718 5719 5718 5717 5715 5714 5713 5712 5711 5710 5709 5708 5707
5680 5682 5683 5685 5687 5689 5691 5693 5695 5697 5699 5700 5701 5702 5704 5705 5706 5707 5709 5709 5710 5711 5711 5711 5711 5711 5710 5710 5709 5709 5708 5708 5707 5707 5706 5704 5703 5702 5701 5700 5699 5698 5697
5670 5672 5674 5676 5678 5680 5682 5684 5686 5688 5690 5691 5692 5694 5695 5696 5698 5699 5700 5700 5701 5701 5701 5701 5701 5701 5701 5700 5700 5699 5698 5697 5697 5696 5696 5695 5693 5692 5690 5689 5688 5687 5685
5661 5663 5665 5667 5668 5670 5672 5674 5677 5679 5680 5682 5683 5685 5686 5687 5689 5690 5690 5691 5692 5692 5692 5692 5692 5692 5691 5690 5689 5689 5688 5687 5686 5685 5685 5684 5683 5681 5680 5679 5677 5676 5675